,,Stat6,,Stat2,,Stat8,,Stat9,,Stat10,,Wind1,,Wind1,
time,status,PA1M_AVG,status,PR1M_SUM,status,RH1M_AVG,status,SR1M_AVG,status,TA1M_AVG,status,W1dAve1m,status,W1sAve1m,
2003-10-24, 00:00:01,VALID,920.298,VALID,0,VALID,97.9148,VALID,-0.0849042,VALID,19.4945,VALID,13,VALID,0.242188,
2003-10-24, 00:01:01,VALID,920.291,VALID,0,VALID,97.5613,VALID,-0.0849042,VALID,19.4431,VALID,11,VALID,0.453316,
2003-10-24, 00:02:01,VALID,920.298,VALID,0,VALID,97.7953,VALID,-0.101885,VALID,19.4265,VALID,356,VALID,0.530692,
2003-10-24, 00:03:01,VALID,920.29,VALID,0,VALID,97.8182,VALID,-0.101885,VALID,19.4011,VALID,359,VALID,0.491257,
2003-10-24, 00:04:01,VALID,920.271,VALID,0,VALID,97.8665,VALID,-0.0849042,VALID,19.3912,VALID,359,VALID,0.325581,
2003-10-24, 00:05:01,VALID,920.25,VALID,0,VALID,97.3909,VALID,-0.0849042,VALID,19.3306,VALID,359,VALID,0.25558,
2003-10-24, 00:06:01,VALID,920.19,VALID,0,VALID,97.3083,VALID,-0.101885,VALID,19.2494,VALID,359,VALID,0.036044,
2003-10-24, 00:07:01,VALID,920.147,VALID,0,VALID,97.7254,VALID,-0.101885,VALID,19.2431,VALID,359,VALID,0.000169837,
2003-10-24, 00:08:01,VALID,920.101,VALID,0,VALID,98.0661,VALID,-0.101885,VALID,19.2561,VALID,359,VALID,0.0708333,
2003-10-24, 00:09:00,VALID,920.066,VALID,0,VALID,98.4642,VALID,-0.0849042,VALID,19.298,VALID,359,VALID,0,
2003-10-24, 00:10:00,VALID,920.066,VALID,0,VALID,98.6307,VALID,-0.101885,VALID,19.3301,VALID,311,VALID,0.287609,
2003-10-24, 00:11:00,VALID,920.082,VALID,0,VALID,98.7706,VALID,-0.0849042,VALID,19.3758,VALID,283,VALID,0.289063,
2003-10-24, 00:12:00,VALID,920.08,VALID,0,VALID,98.8291,VALID,-0.0849042,VALID,19.3917,VALID,283,VALID,0.143864,
2003-10-24, 00:13:00,VALID,920.1,VALID,0,VALID,98.9283,VALID,-0.101885,VALID,19.4309,VALID,283,VALID,0,
2003-10-24, 00:14:00,VALID,920.073,VALID,0,VALID,98.9029,VALID,-0.101885,VALID,19.4237,VALID,283,VALID,0,
2003-10-24, 00:15:00,VALID,920.063,VALID,0,VALID,98.6905,VALID,-0.0509425,VALID,19.4143,VALID,283,VALID,0,
2003-10-24, 00:16:00,VALID,920.028,VALID,0,VALID,98.028,VALID,-0.0849042,VALID,19.3112,VALID,14,VALID,0.300145,
2003-10-24, 00:17:00,VALID,919.994,VALID,0,VALID,97.1391,VALID,-0.0509425,VALID,19.1495,VALID,43,VALID,0.868331,
2003-10-24, 00:18:00,VALID,919.948,VALID,0,VALID,97.0463,VALID,-0.0849042,VALID,19.0496,VALID,35,VALID,0.772396,
2003-10-24, 00:19:00,VALID,919.918,VALID,0,VALID,97.9123,VALID,-0.0509425,VALID,19.0323,VALID,35,VALID,0.530878,
2003-10-24, 00:20:00,VALID,919.889,VALID,0,VALID,98.6295,VALID,0.0169808,VALID,19.0994,VALID,35,VALID,0.0816592,
2003-10-24, 00:21:00,VALID,919.864,VALID,0,VALID,98.8177,VALID,0.0169808,VALID,19.1351,VALID,35,VALID,0,
2003-10-24, 00:22:00,VALID,919.828,VALID,0,VALID,98.9385,VALID,0.0169808,VALID,19.1386,VALID,35,VALID,0,
2003-10-24, 00:23:00,VALID,919.792,VALID,0,VALID,98.9766,VALID,0,VALID,19.1421,VALID,35,VALID,0,
2003-10-24, 00:24:00,VALID,919.761,VALID,0,VALID,99.0148,VALID,0.0169808,VALID,19.1386,VALID,35,VALID,0,
2003-10-24, 00:25:00,VALID,919.728,VALID,0,VALID,99.1089,VALID,0.0339617,VALID,19.1289,VALID,35,VALID,0,
2003-10-24, 00:26:00,VALID,919.718,VALID,0,VALID,99.0822,VALID,0,VALID,19.1294,VALID,35,VALID,0,
2003-10-24, 00:27:00,VALID,919.718,VALID,0,VALID,98.8863,VALID,0.0339617,VALID,19.0807,VALID,35,VALID,0.0558036,
2003-10-24, 00:28:00,VALID,919.733,VALID,0,VALID,98.5252,VALID,0,VALID,18.9806,VALID,35,VALID,0.382473,
2003-10-24, 00:29:00,VALID,919.778,VALID,0,VALID,98.4413,VALID,0,VALID,18.9066,VALID,35,VALID,0.238758,
2003-10-24, 00:30:00,VALID,919.796,VALID,0,VALID,98.6727,VALID,-0.0169808,VALID,18.8776,VALID,35,VALID,0,
2003-10-24, 00:31:00,VALID,919.815,VALID,0,VALID,98.8126,VALID,0,VALID,18.8967,VALID,35,VALID,0.000710227,
2003-10-24, 00:32:00,VALID,919.815,VALID,0,VALID,98.7859,VALID,0,VALID,18.8711,VALID,35,VALID,0.258176,
2003-10-24, 00:33:00,VALID,919.798,VALID,0,VALID,98.9359,VALID,0,VALID,18.8646,VALID,35,VALID,0.244141,
2003-10-24, 00:34:00,VALID,919.764,VALID,0,VALID,98.9258,VALID,0,VALID,18.8614,VALID,36,VALID,0.0822173,
2003-10-24, 00:35:00,VALID,919.735,VALID,0,VALID,99.0008,VALID,0,VALID,18.8587,VALID,36,VALID,0.0175781,
2003-10-24, 00:36:00,VALID,919.706,VALID,0,VALID,98.7554,VALID,-0.0169808,VALID,18.7867,VALID,36,VALID,0,
2003-10-24, 00:37:00,VALID,919.684,VALID,0,VALID,98.5697,VALID,0,VALID,18.7424,VALID,36,VALID,0,
2003-10-24, 00:38:00,VALID,919.659,VALID,0,VALID,98.4807,VALID,0.0339617,VALID,18.6806,VALID,36,VALID,0,
2003-10-24, 00:39:00,VALID,919.631,VALID,0,VALID,98.5608,VALID,0.0339617,VALID,18.6838,VALID,36,VALID,0,
2003-10-24, 00:40:00,VALID,919.604,VALID,0,VALID,98.8685,VALID,0,VALID,18.7263,VALID,36,VALID,0,
2003-10-24, 00:41:00,VALID,919.586,VALID,0,VALID,99.1674,VALID,0,VALID,18.7807,VALID,36,VALID,0,
2003-10-24, 00:42:00,VALID,919.588,VALID,0,VALID,99.3009,VALID,-0.0169808,VALID,18.8393,VALID,36,VALID,0.0873047,
2003-10-24, 00:43:00,VALID,919.587,VALID,0,VALID,99.5107,VALID,0.0509425,VALID,18.8907,VALID,37,VALID,0.353051,
2003-10-24, 00:44:00,VALID,919.583,VALID,0,VALID,99.5641,VALID,-0.0169808,VALID,18.9332,VALID,134,VALID,0.370458,
2003-10-24, 00:45:00,VALID,919.567,VALID,0,VALID,99.5196,VALID,0.0169808,VALID,18.9362,VALID,137,VALID,0.511446,
2003-10-24, 00:46:00,VALID,919.563,VALID,0,VALID,99.6378,VALID,0,VALID,18.9359,VALID,146,VALID,0.507011,
2003-10-24, 00:47:00,VALID,919.546,VALID,0,VALID,99.5145,VALID,0,VALID,18.9491,VALID,146,VALID,0.259629,
2003-10-24, 00:48:00,VALID,919.555,VALID,0,VALID,99.4102,VALID,0,VALID,18.92,VALID,138,VALID,0.397035,
2003-10-24, 00:49:00,VALID,919.574,VALID,0,VALID,99.3746,VALID,0,VALID,18.8944,VALID,123,VALID,0.157393,
2003-10-24, 00:50:00,VALID,919.608,VALID,0,VALID,99.3009,VALID,0,VALID,18.8716,VALID,123,VALID,0.0108173,
2003-10-24, 00:51:00,VALID,919.661,VALID,0,VALID,98.9181,VALID,0,VALID,18.7911,VALID,123,VALID,0,
2003-10-24, 00:52:00,VALID,919.705,VALID,0,VALID,98.7592,VALID,0,VALID,18.7201,VALID,123,VALID,0,
2003-10-24, 00:53:00,VALID,919.749,VALID,0,VALID,98.5214,VALID,0,VALID,18.6714,VALID,123,VALID,0,
2003-10-24, 00:54:00,VALID,919.776,VALID,0,VALID,98.5074,VALID,0,VALID,18.6161,VALID,123,VALID,0,
2003-10-24, 00:55:00,VALID,919.789,VALID,0,VALID,98.6625,VALID,0.0169808,VALID,18.6257,VALID,46,VALID,0.400618,
2003-10-24, 00:56:00,VALID,919.765,VALID,0,VALID,98.3828,VALID,0,VALID,18.5646,VALID,41,VALID,0.521802,
2003-10-24, 00:57:00,VALID,919.735,VALID,0,VALID,98.1768,VALID,0,VALID,18.4941,VALID,29,VALID,1.05022,
2003-10-24, 00:58:00,VALID,919.696,VALID,0,VALID,98.8584,VALID,0,VALID,18.539,VALID,22,VALID,1.0506,
2003-10-24, 00:59:00,VALID,919.675,VALID,0,VALID,99.1585,VALID,0.0169808,VALID,18.5683,VALID,26,VALID,0.692454,
2003-10-24, 01:00:00,VALID,919.655,VALID,0,VALID,99.3339,VALID,0,VALID,18.5879,VALID,38,VALID,0.515024,
2003-10-24, 01:01:00,VALID,919.652,VALID,0,VALID,99.5666,VALID,0,VALID,18.6297,VALID,60,VALID,0.638951,
2003-10-24, 01:02:00,VALID,919.622,VALID,0,VALID,99.7701,VALID,0.0169808,VALID,18.6811,VALID,69,VALID,0.725347,
2003-10-24, 01:03:00,VALID,919.587,VALID,0,VALID,99.9087,VALID,0,VALID,18.7593,VALID,78,VALID,0.676491,
2003-10-24, 01:04:00,VALID,919.557,VALID,0,VALID,99.9329,VALID,0.0169808,VALID,18.7911,VALID,97,VALID,0.528587,
2003-10-24, 01:05:00,VALID,919.526,VALID,0,VALID,99.7281,VALID,0.0169808,VALID,18.7613,VALID,109,VALID,0.382102,
2003-10-24, 01:06:00,VALID,919.498,VALID,0,VALID,99.6747,VALID,0.0169808,VALID,18.7355,VALID,114,VALID,0.448946,
2003-10-24, 01:07:00,VALID,919.474,VALID,0,VALID,99.7078,VALID,0,VALID,18.7332,VALID,131,VALID,0.491365,
2003-10-24, 01:08:00,VALID,919.43,VALID,0,VALID,99.7421,VALID,0.0509425,VALID,18.7364,VALID,148,VALID,0.467035,
2003-10-24, 01:09:00,VALID,919.392,VALID,0,VALID,99.7548,VALID,0.0169808,VALID,18.7392,VALID,148,VALID,0.300967,
2003-10-24, 01:10:00,VALID,919.333,VALID,0,VALID,99.7332,VALID,0,VALID,18.7424,VALID,148,VALID,0.132254,
2003-10-24, 01:11:00,VALID,919.29,VALID,0,VALID,99.7319,VALID,0,VALID,18.7427,VALID,148,VALID,0.00138889,
2003-10-24, 01:12:00,VALID,919.246,VALID,0,VALID,99.5437,VALID,-0.0169808,VALID,18.6938,VALID,148,VALID,0,
2003-10-24, 01:13:00,VALID,919.243,VALID,0,VALID,99.1966,VALID,0,VALID,18.6034,VALID,148,VALID,0,
2003-10-24, 01:14:00,VALID,919.232,VALID,0,VALID,99.0847,VALID,0,VALID,18.5621,VALID,148,VALID,0,
2003-10-24, 01:15:00,VALID,919.223,VALID,0,VALID,99.0008,VALID,0.0339617,VALID,18.5231,VALID,147,VALID,0.147135,
2003-10-24, 01:16:00,VALID,919.207,VALID,0,VALID,98.8622,VALID,0,VALID,18.4971,VALID,122,VALID,0.32706,
2003-10-24, 01:17:00,VALID,919.177,VALID,0,VALID,98.6358,VALID,0.0169808,VALID,18.4392,VALID,61,VALID,0.384487,
2003-10-24, 01:18:00,VALID,919.161,VALID,0,VALID,98.6282,VALID,0,VALID,18.3908,VALID,60,VALID,0.177819,
2003-10-24, 01:19:00,VALID,919.143,VALID,0,VALID,98.9652,VALID,-0.0339617,VALID,18.4074,VALID,60,VALID,0,
2003-10-24, 01:20:00,VALID,919.116,VALID,0,VALID,99.3721,VALID,-0.101885,VALID,18.4503,VALID,60,VALID,0,
2003-10-24, 01:21:00,VALID,919.082,VALID,0,VALID,99.6518,VALID,-0.101885,VALID,18.531,VALID,60,VALID,0.0308594,
2003-10-24, 01:22:00,VALID,919.03,VALID,0,VALID,99.5616,VALID,-0.101885,VALID,18.5536,VALID,60,VALID,0.239211,
2003-10-24, 01:23:00,VALID,918.999,VALID,0,VALID,99.6302,VALID,-0.101885,VALID,18.5568,VALID,60,VALID,0.365189,
2003-10-24, 01:24:00,VALID,918.958,VALID,0,VALID,99.6239,VALID,-0.101885,VALID,18.5702,VALID,65,VALID,0.405705,
2003-10-24, 01:25:00,VALID,918.942,VALID,0,VALID,99.6709,VALID,-0.101885,VALID,18.5734,VALID,65,VALID,0.171148,
2003-10-24, 01:26:00,VALID,918.919,VALID,0,VALID,99.7612,VALID,-0.101885,VALID,18.5833,VALID,65,VALID,0.0174419,
2003-10-24, 01:27:00,VALID,918.924,VALID,0,VALID,99.7574,VALID,-0.101885,VALID,18.5789,VALID,65,VALID,0,
2003-10-24, 01:28:00,VALID,918.945,VALID,0,VALID,99.5997,VALID,-0.118866,VALID,18.5541,VALID,65,VALID,0,
2003-10-24, 01:29:00,VALID,918.967,VALID,0,VALID,99.3606,VALID,-0.0849042,VALID,18.4729,VALID,65,VALID,0,
2003-10-24, 01:30:00,VALID,918.995,VALID,0,VALID,99.2182,VALID,-0.101885,VALID,18.4115,VALID,65,VALID,0,
2003-10-24, 01:31:00,VALID,918.999,VALID,0,VALID,99.2309,VALID,-0.101885,VALID,18.3728,VALID,65,VALID,0,
2003-10-24, 01:32:00,VALID,919,VALID,0,VALID,99.1406,VALID,-0.101885,VALID,18.347,VALID,57,VALID,0.261218,
2003-10-24, 01:33:00,VALID,918.993,VALID,0,VALID,99.044,VALID,-0.101885,VALID,18.3082,VALID,49,VALID,0.420603,
2003-10-24, 01:34:00,VALID,918.989,VALID,0,VALID,99.0033,VALID,-0.0509425,VALID,18.2688,VALID,49,VALID,0.531432,
2003-10-24, 01:35:00,VALID,918.994,VALID,0,VALID,99.4636,VALID,0,VALID,18.3165,VALID,49,VALID,0.42066,
2003-10-24, 01:36:00,VALID,918.983,VALID,0,VALID,99.8973,VALID,-0.0169808,VALID,18.4392,VALID,51,VALID,0.46503,
2003-10-24, 01:37:00,VALID,918.978,VALID,0,VALID,99.999,VALID,-0.0339617,VALID,18.5619,VALID,60,VALID,0.65346,
2003-10-24, 01:38:00,VALID,918.964,VALID,0,VALID,100,VALID,-0.0169808,VALID,18.6267,VALID,71,VALID,0.716974,
2003-10-24, 01:39:00,VALID,918.952,VALID,0,VALID,99.9504,VALID,-0.0509425,VALID,18.6073,VALID,83,VALID,0.762835,
2003-10-24, 01:40:00,VALID,918.943,VALID,0,VALID,99.8438,VALID,0,VALID,18.5716,VALID,83,VALID,0.618924,
2003-10-24, 01:41:00,VALID,918.934,VALID,0,VALID,99.8121,VALID,0,VALID,18.5556,VALID,83,VALID,0.492188,
2003-10-24, 01:42:00,VALID,918.914,VALID,0,VALID,99.8184,VALID,0,VALID,18.5367,VALID,82,VALID,0.424361,
2003-10-24, 01:43:00,VALID,918.891,VALID,0,VALID,99.826,VALID,0,VALID,18.5167,VALID,79,VALID,0.490184,
2003-10-24, 01:44:00,VALID,918.875,VALID,0,VALID,99.8184,VALID,0,VALID,18.5107,VALID,79,VALID,0.504001,
2003-10-24, 01:45:00,VALID,918.861,VALID,0,VALID,99.8947,VALID,0,VALID,18.5169,VALID,79,VALID,0.368555,
2003-10-24, 01:46:00,VALID,918.857,VALID,0,VALID,99.9769,VALID,0,VALID,18.5527,VALID,79,VALID,0.341025,
2003-10-24, 01:47:00,VALID,918.849,VALID,0,VALID,99.999,VALID,0,VALID,18.5882,VALID,79,VALID,0,
2003-10-24, 01:48:00,VALID,918.855,VALID,0,VALID,100,VALID,0,VALID,18.6068,VALID,79,VALID,0,
2003-10-24, 01:49:00,VALID,918.843,VALID,0,VALID,100,VALID,0.0169808,VALID,18.6297,VALID,79,VALID,0.019077,
2003-10-24, 01:50:00,VALID,918.816,VALID,0,VALID,100,VALID,0,VALID,18.646,VALID,79,VALID,0.00726744,
2003-10-24, 01:51:00,VALID,918.791,VALID,0,VALID,100,VALID,0,VALID,18.656,VALID,79,VALID,0.259588,
2003-10-24, 01:52:00,VALID,918.755,VALID,0,VALID,100,VALID,0,VALID,18.6458,VALID,91,VALID,0.674006,
2003-10-24, 01:53:00,VALID,918.739,VALID,0,VALID,100,VALID,0,VALID,18.6816,VALID,91,VALID,0.612305,
2003-10-24, 01:54:00,VALID,918.737,VALID,0,VALID,100,VALID,-0.0169808,VALID,18.6624,VALID,89,VALID,0.615327,
2003-10-24, 01:55:00,VALID,918.762,VALID,0,VALID,100,VALID,0,VALID,18.6719,VALID,89,VALID,0.644985,
2003-10-24, 01:56:00,VALID,918.799,VALID,0,VALID,100,VALID,0.0169808,VALID,18.6979,VALID,90,VALID,0.789825,
2003-10-24, 01:57:00,VALID,918.841,VALID,0,VALID,100,VALID,0,VALID,18.7397,VALID,104,VALID,1.03398,
2003-10-24, 01:58:00,VALID,918.875,VALID,0,VALID,100,VALID,0,VALID,18.7593,VALID,116,VALID,1.45071,
2003-10-24, 01:59:00,VALID,918.903,VALID,0,VALID,100,VALID,0,VALID,18.7655,VALID,121,VALID,1.51087,
2003-10-24, 02:00:00,VALID,918.914,VALID,0,VALID,100,VALID,-0.0169808,VALID,18.7494,VALID,122,VALID,1.31019,
2003-10-24, 02:01:00,VALID,918.909,VALID,0,VALID,100,VALID,0.0169808,VALID,18.7526,VALID,129,VALID,1.05233,
2003-10-24, 02:02:00,VALID,918.901,VALID,0,VALID,100,VALID,0.0169808,VALID,18.7583,VALID,128,VALID,1.08651,
2003-10-24, 02:03:00,VALID,918.905,VALID,0,VALID,100,VALID,-0.0169808,VALID,18.7846,VALID,134,VALID,1.08464,
2003-10-24, 02:04:00,VALID,918.896,VALID,0,VALID,100,VALID,0,VALID,18.8008,VALID,137,VALID,0.916193,
2003-10-24, 02:05:00,VALID,918.875,VALID,0,VALID,100,VALID,0.0169808,VALID,18.8365,VALID,139,VALID,0.400534,
2003-10-24, 02:06:00,VALID,918.879,VALID,0,VALID,100,VALID,-0.0339617,VALID,18.8391,VALID,135,VALID,0.3,
2003-10-24, 02:07:00,VALID,918.876,VALID,0,VALID,100,VALID,0,VALID,18.878,VALID,134,VALID,0.143787,
2003-10-24, 02:08:00,VALID,918.884,VALID,0,VALID,100,VALID,0.0169808,VALID,18.9202,VALID,135,VALID,0.0424679,
2003-10-24, 02:09:00,VALID,918.882,VALID,0,VALID,100,VALID,0,VALID,18.9463,VALID,135,VALID,0.00177557,
2003-10-24, 02:10:00,VALID,918.91,VALID,0,VALID,100,VALID,0.0169808,VALID,18.9555,VALID,135,VALID,0,
2003-10-24, 02:11:00,VALID,918.937,VALID,0,VALID,100,VALID,0,VALID,18.9751,VALID,131,VALID,0.130716,
2003-10-24, 02:12:00,VALID,918.939,VALID,0,VALID,100,VALID,0,VALID,18.9521,VALID,129,VALID,0.627418,
2003-10-24, 02:13:00,VALID,918.937,VALID,0,VALID,100,VALID,0,VALID,18.9366,VALID,123,VALID,0.656436,
2003-10-24, 02:14:00,VALID,918.943,VALID,0,VALID,100,VALID,0,VALID,18.9006,VALID,102,VALID,0.65439,
2003-10-24, 02:15:00,VALID,918.96,VALID,0,VALID,100,VALID,0,VALID,18.8584,VALID,82,VALID,0.587028,
2003-10-24, 02:16:00,VALID,918.968,VALID,0,VALID,100,VALID,0,VALID,18.8418,VALID,75,VALID,0.719494,
2003-10-24, 02:17:00,VALID,918.965,VALID,0,VALID,100,VALID,0,VALID,18.8654,VALID,88,VALID,0.751172,
2003-10-24, 02:18:00,VALID,918.95,VALID,0,VALID,100,VALID,0.0169808,VALID,18.875,VALID,81,VALID,0.599964,
2003-10-24, 02:19:00,VALID,918.922,VALID,0,VALID,100,VALID,-0.0169808,VALID,18.8713,VALID,80,VALID,0.228237,
2003-10-24, 02:20:00,VALID,918.896,VALID,0,VALID,100,VALID,0,VALID,18.8748,VALID,88,VALID,0.35774,
2003-10-24, 02:21:00,VALID,918.85,VALID,0,VALID,100,VALID,-0.0339617,VALID,18.8947,VALID,91,VALID,0.271949,
2003-10-24, 02:22:00,VALID,918.813,VALID,0,VALID,100,VALID,0,VALID,18.9039,VALID,92,VALID,0.00218023,
2003-10-24, 02:23:00,VALID,918.785,VALID,0,VALID,100,VALID,-0.0169808,VALID,18.9205,VALID,92,VALID,0.104911,
2003-10-24, 02:24:00,VALID,918.742,VALID,0,VALID,100,VALID,0,VALID,18.9332,VALID,98,VALID,0.404018,
2003-10-24, 02:25:00,VALID,918.729,VALID,0,VALID,100,VALID,0,VALID,18.9359,VALID,111,VALID,0.668341,
2003-10-24, 02:26:00,VALID,918.742,VALID,0,VALID,100,VALID,0,VALID,18.9131,VALID,124,VALID,0.879192,
2003-10-24, 02:27:00,VALID,918.747,VALID,0,VALID,100,VALID,-0.0169808,VALID,18.9168,VALID,121,VALID,0.925781,
2003-10-24, 02:28:00,VALID,918.74,VALID,0,VALID,100,VALID,0,VALID,18.9039,VALID,108,VALID,1.01376,
2003-10-24, 02:29:00,VALID,918.725,VALID,0,VALID,100,VALID,-0.0169808,VALID,18.8813,VALID,79,VALID,0.722747,
2003-10-24, 02:30:00,VALID,918.72,VALID,0,VALID,100,VALID,-0.0169808,VALID,18.8651,VALID,58,VALID,0.728468,
2003-10-24, 02:31:00,VALID,918.711,VALID,0,VALID,100,VALID,-0.0169808,VALID,18.8391,VALID,50,VALID,0.776042,
2003-10-24, 02:32:00,VALID,918.708,VALID,0,VALID,100,VALID,0,VALID,18.8423,VALID,62,VALID,0.903392,
2003-10-24, 02:33:00,VALID,918.71,VALID,0,VALID,100,VALID,0,VALID,18.8492,VALID,56,VALID,0.859545,
2003-10-24, 02:34:00,VALID,918.721,VALID,0,VALID,100,VALID,0,VALID,18.8522,VALID,76,VALID,0.644622,
2003-10-24, 02:35:00,VALID,918.71,VALID,0,VALID,100,VALID,0,VALID,18.8453,VALID,82,VALID,0.503239,
2003-10-24, 02:36:00,VALID,918.707,VALID,0,VALID,100,VALID,-0.0169808,VALID,18.8552,VALID,89,VALID,0.179501,
2003-10-24, 02:37:00,VALID,918.698,VALID,0,VALID,100,VALID,0,VALID,18.8656,VALID,89,VALID,0.347384,
2003-10-24, 02:38:00,VALID,918.685,VALID,0,VALID,100,VALID,0,VALID,18.8912,VALID,89,VALID,0.19215,
2003-10-24, 02:39:00,VALID,918.687,VALID,0,VALID,100,VALID,-0.0339617,VALID,18.92,VALID,102,VALID,0.463246,
2003-10-24, 02:40:00,VALID,918.696,VALID,0,VALID,100,VALID,-0.0169808,VALID,18.9299,VALID,136,VALID,0.865282,
2003-10-24, 02:41:00,VALID,918.694,VALID,0,VALID,100,VALID,0,VALID,18.9391,VALID,133,VALID,0.476563,
2003-10-24, 02:42:00,VALID,918.688,VALID,0,VALID,100,VALID,0,VALID,18.9399,VALID,133,VALID,0.497456,
2003-10-24, 02:43:00,VALID,918.671,VALID,0,VALID,100,VALID,0,VALID,18.9364,VALID,133,VALID,0.69401,
2003-10-24, 02:44:00,VALID,918.673,VALID,0,VALID,100,VALID,0,VALID,18.9421,VALID,133,VALID,0.42721,
2003-10-24, 02:45:00,VALID,918.671,VALID,0,VALID,100,VALID,0.0169808,VALID,18.9329,VALID,133,VALID,0.627046,
2003-10-24, 02:46:00,VALID,918.665,VALID,0,VALID,100,VALID,-0.0169808,VALID,18.9394,VALID,133,VALID,0.659226,
2003-10-24, 02:47:00,VALID,918.65,VALID,0,VALID,100,VALID,0,VALID,18.9426,VALID,133,VALID,0.383984,
2003-10-24, 02:48:00,VALID,918.624,VALID,0,VALID,100,VALID,0.0169808,VALID,18.92,VALID,133,VALID,0.58647,
2003-10-24, 02:49:00,VALID,918.577,VALID,0,VALID,100,VALID,-0.0509425,VALID,18.8939,VALID,132,VALID,0.47389,
2003-10-24, 02:50:00,VALID,918.526,VALID,0,VALID,100,VALID,-0.0169808,VALID,18.8974,VALID,132,VALID,0.294588,
2003-10-24, 02:51:00,VALID,918.468,VALID,0,VALID,100,VALID,-0.0169808,VALID,18.917,VALID,132,VALID,0.284157,
2003-10-24, 02:52:00,VALID,918.434,VALID,0,VALID,100,VALID,0,VALID,18.9205,VALID,129,VALID,0.509681,
2003-10-24, 02:53:00,VALID,918.422,VALID,0,VALID,100,VALID,0,VALID,18.9106,VALID,128,VALID,0.825648,
2003-10-24, 02:54:00,VALID,918.449,VALID,0,VALID,100,VALID,0,VALID,18.8942,VALID,132,VALID,0.960136,
2003-10-24, 02:55:00,VALID,918.454,VALID,0,VALID,100,VALID,-0.0169808,VALID,18.8974,VALID,129,VALID,1.0798,
2003-10-24, 02:56:00,VALID,918.483,VALID,0,VALID,100,VALID,-0.0169808,VALID,18.9295,VALID,126,VALID,1.25934,
2003-10-24, 02:57:00,VALID,918.51,VALID,0,VALID,100,VALID,0,VALID,18.9329,VALID,125,VALID,0.901228,
2003-10-24, 02:58:00,VALID,918.525,VALID,0,VALID,100,VALID,0,VALID,18.9391,VALID,131,VALID,0.759766,
2003-10-24, 02:59:00,VALID,918.512,VALID,0,VALID,100,VALID,-0.0339617,VALID,18.9461,VALID,135,VALID,0.577398,
2003-10-24, 03:00:00,VALID,918.492,VALID,0,VALID,100,VALID,-0.0169808,VALID,18.9362,VALID,134,VALID,0.565044,
2003-10-24, 03:01:00,VALID,918.467,VALID,0,VALID,100,VALID,0,VALID,18.92,VALID,84,VALID,0.679315,
2003-10-24, 03:02:00,VALID,918.424,VALID,0,VALID,100,VALID,0,VALID,18.8969,VALID,64,VALID,0.611555,
2003-10-24, 03:03:00,VALID,918.403,VALID,0,VALID,100,VALID,0,VALID,18.891,VALID,67,VALID,0.825149,
2003-10-24, 03:04:00,VALID,918.405,VALID,0,VALID,100,VALID,-0.0169808,VALID,18.8912,VALID,76,VALID,0.801758,
2003-10-24, 03:05:00,VALID,918.42,VALID,0,VALID,100,VALID,0,VALID,18.8937,VALID,86,VALID,0.800495,
2003-10-24, 03:06:00,VALID,918.438,VALID,0,VALID,100,VALID,0.0169808,VALID,18.9133,VALID,94,VALID,0.779861,
2003-10-24, 03:07:00,VALID,918.449,VALID,0,VALID,100,VALID,-0.0169808,VALID,18.923,VALID,76,VALID,0.810547,
2003-10-24, 03:08:00,VALID,918.443,VALID,0,VALID,100,VALID,0,VALID,18.9269,VALID,62,VALID,0.776811,
2003-10-24, 03:09:00,VALID,918.428,VALID,0,VALID,100,VALID,0.0169808,VALID,18.9071,VALID,55,VALID,0.715523,
2003-10-24, 03:10:00,VALID,918.422,VALID,0,VALID,100,VALID,0,VALID,18.881,VALID,37,VALID,0.531783,
2003-10-24, 03:11:00,VALID,918.395,VALID,0,VALID,100,VALID,0,VALID,18.8778,VALID,15,VALID,0.64027,
2003-10-24, 03:12:00,VALID,918.374,VALID,0,VALID,99.9855,VALID,0,VALID,18.8753,VALID,10,VALID,0.693824,
2003-10-24, 03:13:00,VALID,918.386,VALID,0,VALID,99.924,VALID,0,VALID,18.8621,VALID,8,VALID,0.494731,
2003-10-24, 03:14:00,VALID,918.414,VALID,0,VALID,99.9049,VALID,0,VALID,18.8651,VALID,4,VALID,0.178757,
2003-10-24, 03:15:00,VALID,918.441,VALID,0,VALID,99.868,VALID,0,VALID,18.8815,VALID,358,VALID,0.0667783,
2003-10-24, 03:16:00,VALID,918.465,VALID,0,VALID,99.8337,VALID,0.0169808,VALID,18.8748,VALID,317,VALID,0.322461,
2003-10-24, 03:17:00,VALID,918.496,VALID,0,VALID,99.7421,VALID,0,VALID,18.8554,VALID,287,VALID,0.0491319,
2003-10-24, 03:18:00,VALID,918.51,VALID,0,VALID,99.7129,VALID,0,VALID,18.8619,VALID,287,VALID,0,
2003-10-24, 03:19:00,VALID,918.542,VALID,0,VALID,99.6735,VALID,0,VALID,18.8554,VALID,287,VALID,0.196378,
2003-10-24, 03:20:00,VALID,918.568,VALID,0,VALID,99.6607,VALID,0,VALID,18.8554,VALID,287,VALID,0.37128,
2003-10-24, 03:21:00,VALID,918.572,VALID,0,VALID,99.7116,VALID,-0.0169808,VALID,18.8718,VALID,289,VALID,0.330859,
2003-10-24, 03:22:00,VALID,918.576,VALID,0,VALID,99.7218,VALID,0,VALID,18.8709,VALID,296,VALID,0.290838,
2003-10-24, 03:23:00,VALID,918.578,VALID,0,VALID,99.6874,VALID,-0.0339617,VALID,18.8815,VALID,349,VALID,0.597751,
2003-10-24, 03:24:00,VALID,918.572,VALID,0,VALID,99.6061,VALID,-0.0169808,VALID,18.849,VALID,359,VALID,0.856468,
2003-10-24, 03:25:00,VALID,918.576,VALID,0,VALID,99.512,VALID,0,VALID,18.8266,VALID,7,VALID,0.825707,
2003-10-24, 03:26:00,VALID,918.603,VALID,0,VALID,99.3873,VALID,0,VALID,18.7745,VALID,12,VALID,0.784784,
2003-10-24, 03:27:00,VALID,918.628,VALID,0,VALID,99.3886,VALID,0.0169808,VALID,18.7392,VALID,12,VALID,0.568892,
2003-10-24, 03:28:00,VALID,918.65,VALID,0,VALID,99.3721,VALID,-0.0169808,VALID,18.7228,VALID,18,VALID,0.533913,
2003-10-24, 03:29:00,VALID,918.652,VALID,0,VALID,99.339,VALID,0,VALID,18.6776,VALID,21,VALID,0.552326,
2003-10-24, 03:30:00,VALID,918.654,VALID,0,VALID,99.2843,VALID,-0.0169808,VALID,18.6394,VALID,23,VALID,0.751302,
2003-10-24, 03:31:00,VALID,918.669,VALID,0,VALID,99.3505,VALID,0,VALID,18.6041,VALID,29,VALID,0.516992,
2003-10-24, 03:32:00,VALID,918.689,VALID,0,VALID,99.5081,VALID,-0.0169808,VALID,18.6008,VALID,29,VALID,0.199591,
2003-10-24, 03:33:00,VALID,918.68,VALID,0,VALID,99.5921,VALID,-0.0169808,VALID,18.5946,VALID,29,VALID,0.0986555,
2003-10-24, 03:34:00,VALID,918.677,VALID,0,VALID,99.6289,VALID,-0.0339617,VALID,18.5944,VALID,29,VALID,0,
2003-10-24, 03:35:00,VALID,918.675,VALID,0,VALID,99.676,VALID,0,VALID,18.5817,VALID,29,VALID,0,
2003-10-24, 03:36:00,VALID,918.649,VALID,0,VALID,99.6938,VALID,-0.0169808,VALID,18.5718,VALID,29,VALID,0,
2003-10-24, 03:37:00,VALID,918.638,VALID,0,VALID,99.6785,VALID,-0.0509425,VALID,18.546,VALID,29,VALID,0.268999,
2003-10-24, 03:38:00,VALID,918.646,VALID,0,VALID,99.6747,VALID,0,VALID,18.5328,VALID,29,VALID,0.423692,
2003-10-24, 03:39:00,VALID,918.659,VALID,0,VALID,99.6849,VALID,0,VALID,18.5075,VALID,29,VALID,0.287574,
2003-10-24, 03:40:00,VALID,918.682,VALID,0,VALID,99.7154,VALID,0,VALID,18.4911,VALID,29,VALID,0.113653,
2003-10-24, 03:41:00,VALID,918.715,VALID,0,VALID,99.7408,VALID,-0.0509425,VALID,18.4648,VALID,29,VALID,0,
2003-10-24, 03:42:00,VALID,918.713,VALID,0,VALID,99.7917,VALID,0,VALID,18.4685,VALID,29,VALID,0,
2003-10-24, 03:43:00,VALID,918.7,VALID,0,VALID,99.8324,VALID,-0.0169808,VALID,18.4655,VALID,29,VALID,0.0025436,
2003-10-24, 03:44:00,VALID,918.702,VALID,0,VALID,99.7904,VALID,-0.0509425,VALID,18.4364,VALID,30,VALID,0.200868,